Regional Weather Roundup
Issued by NWS

Home | Current Version | Previous Version | Text Only | Print | Product List | Glossary Off
Versions: 1 2 3 4 5 6 7 8 9 10 11 12 13 14 15 16 17 18 19 20 21 22 23 24 25 26 27 28 29 30 31 32 33 34 35 36 37 38 39 40 41 42 43 44 45 46 47 48 49 50

000
ASUS43 KBIS 291410
RWRND

NORTH DAKOTA REGIONAL WEATHER ROUNDUP
NATIONAL WEATHER SERVICE BISMARCK ND
900 AM CDT SAT AUG 29 2015

NOTE: "FAIR" INDICATES FEW OR NO CLOUDS BELOW 12,000 FEET WITH NO
SIGNIFICANT WEATHER AND/OR OBSTRUCTIONS TO VISIBILITY.


NDZ001>003-009>011-017-291500-
NORTHWEST NORTH DAKOTA

CITY           SKY/WX    TMP DP  RH WIND       PRES   REMARKS
WILLISTON      PTSUNNY   63  52  67 SW8       29.93R HAZE
MINOT          PTSUNNY   64  52  64 S5        29.90F HAZE
MINOT AFB      PTSUNNY   61  59  92 CALM      29.89S
$$

NDZ018>021-031>035-040>046-291500-
SOUTHWEST NORTH DAKOTA

CITY           SKY/WX    TMP DP  RH WIND       PRES   REMARKS
BISMARCK       CLOUDY    62  59  90 CALM      29.96R
DICKINSON      MOSUNNY   65  52  62 S5        29.96F HAZE
GARRISON         N/A     61  57  87 CALM      29.94S
HETTINGER ARPT PTSUNNY   58  52  80 CALM      30.02R HAZE
$$

NDZ004>008-012>016-024-026-027-054-291500-
NORTHEAST NORTH DAKOTA

CITY           SKY/WX    TMP DP  RH WIND       PRES   REMARKS
GRAND FORKS    PTSUNNY   65  63  93 S10       29.91S
GRND FRKS AFB  CLOUDY    65  65 100 S6        29.92R
DEVILS LAKE    SUNNY     64  61  88 SE6       29.91S
$$

NDZ022-023-025-028>030-036>039-047>053-291500-
SOUTHEAST NORTH DAKOTA

CITY           SKY/WX    TMP DP  RH WIND       PRES   REMARKS
FARGO          SUNNY     65  60  84 S12       29.95F
JAMESTOWN      MOSUNNY   64  62  93 S8        29.93F
$$



USA.gov is the U.S. government's official web portal to all federal, state and local government web resources and services.